Indianapolis, IN

4:14 PM EST on November 16, 2019 (GMT -0500)
Indianapolis Terry

Weather History for KTYQ - June, 2019

Change the Weather History Date:

Wednesday, June 5, 2019

  Actual Average (WUND) Record (WUND)
Temperature  
Mean Temperature 72 °F -  
Max Temperature 80 °F - - (-1)
Min Temperature 64 °F - - (-1)
Cooling Degree Days 7    
Growing Degree Days 22 (Base 50)    
Moisture  
Dew Point 67 °F    
Average Humidity 91    
Maximum Humidity 100    
Minimum Humidity 69    
Precipitation  
Precipitation 0.21 in - - ()
Sea Level Pressure  
Sea Level Pressure 29.81 in    
Wind  
Wind Speed 8 mph ()    
Max Wind Speed 18 mph    
Max Gust Speed 25 mph    
Visibility 9.7 miles    
Events Rain , Thunderstorm    
Averages and records for this station are not official NWS values.
T = Trace of Precipitation, MM = Missing Value Source: Averaged Metar Reports

Daily Weather History Graph

Daily Weather History Graph

Search for Another Location

Airport or City:

Astronomy

Jun. 05, 2019 Rise Set
Actual Time 6:16 AM EDT 9:10 PM EDT
Civil Twilight 5:44 AM EDT 9:42 PM EDT
Nautical Twilight 5:03 AM EDT 10:23 PM EDT
Astronomical Twilight 4:16 AM EDT 11:11 PM EDT
Moon 8:21 AM EDT (6/5) 11:36 PM EDT (6/5)
Length of Visible Light 15h 58m
Length of Day
14h 53m
Waxing Crescent, 6% of the Moon is Illuminated
Jun 5
Waxing Crescent
Jun 10
First Quarter
Jun 17
Full
Jun 25
Last Quarter
Jul 2
New

Hourly Weather History & Observations

Time (EDT) Temp. Heat Index Dew Point Humidity Pressure Visibility Wind Dir Wind Speed Gust Speed Precip Events Conditions
12:15 AM 68.5 °F - 58.1 °F 69% 29.88 in 10.0 mi South 6.9 mph - N/A   Scattered Clouds
12:35 AM 68.0 °F - 59.0 °F 73% 29.88 in 10.0 mi South 6.9 mph - N/A   Scattered Clouds
12:55 AM 68.0 °F - 59.5 °F 74% 29.87 in 10.0 mi South 6.9 mph - N/A   Clear
1:15 AM 68.0 °F - 59.9 °F 75% 29.87 in 10.0 mi South 8.1 mph - N/A   Clear
1:35 AM 68.0 °F - 60.3 °F 76% 29.87 in 10.0 mi South 8.1 mph - N/A   Clear
1:55 AM 68.4 °F - 60.8 °F 77% 29.87 in 10.0 mi SSW 6.9 mph - N/A   Clear
2:15 AM 68.2 °F - 61.7 °F 80% 29.87 in 10.0 mi South 8.1 mph - N/A   Scattered Clouds
2:35 AM 68.0 °F - 62.1 °F 81% 29.86 in 10.0 mi South 8.1 mph - N/A   Scattered Clouds
2:55 AM 68.0 °F - 63.0 °F 84% 29.85 in 10.0 mi SSW 9.2 mph - N/A   Clear
3:15 AM 68.0 °F - 63.9 °F 87% 29.83 in 10.0 mi SSW 11.5 mph - N/A   Clear
3:35 AM 68.2 °F - 64.6 °F 88% 29.83 in 10.0 mi SSW 10.4 mph - N/A   Clear
3:55 AM 68.2 °F - 65.5 °F 91% 29.83 in 10.0 mi SSW 10.4 mph - N/A   Clear
4:15 AM 68.2 °F - 65.8 °F 92% 29.83 in 10.0 mi SW 10.4 mph - N/A   Scattered Clouds
4:35 AM 68.0 °F - 66.2 °F 94% 29.83 in 10.0 mi SW 10.4 mph 16.1 mph N/A   Scattered Clouds
4:55 AM 68.0 °F - 66.6 °F 95% 29.82 in 10.0 mi SW 10.4 mph - N/A   Scattered Clouds
5:15 AM 67.6 °F - 66.6 °F 96% 29.81 in 10.0 mi SSW 8.1 mph - N/A   Scattered Clouds
5:35 AM 67.1 °F - 66.7 °F 99% 29.81 in 10.0 mi SSW 8.1 mph - N/A   Scattered Clouds
5:55 AM 67.6 °F - 67.3 °F 99% 29.81 in 10.0 mi SSW 8.1 mph - N/A   Scattered Clouds
6:15 AM 67.8 °F - 67.5 °F 99% 29.81 in 10.0 mi West 4.6 mph - N/A   Clear
6:35 AM 67.6 °F - 67.1 °F 98% 29.83 in 10.0 mi SW 8.1 mph - N/A   Clear
6:55 AM 68.4 °F - 67.3 °F 96% 29.84 in 10.0 mi SW 8.1 mph - N/A   Scattered Clouds
7:15 AM 68.4 °F - 67.3 °F 96% 29.84 in 10.0 mi SW 8.1 mph - N/A   Scattered Clouds
7:35 AM 68.9 °F - 67.8 °F 96% 29.84 in 10.0 mi SW 9.2 mph - N/A Thunderstorm Scattered Clouds
7:55 AM 69.1 °F - 67.5 °F 95% 29.83 in 10.0 mi SSW 9.2 mph - N/A   Overcast
8:15 AM 69.8 °F - 67.1 °F 91% 29.82 in 10.0 mi SW 11.5 mph - N/A   Overcast
8:35 AM 70.5 °F - 67.1 °F 89% 29.81 in 10.0 mi SW 11.5 mph 17.3 mph N/A   Scattered Clouds
8:55 AM 70.3 °F - 66.7 °F 88% 29.82 in 10.0 mi WSW 10.4 mph - N/A   Mostly Cloudy
9:15 AM 70.9 °F - 66.9 °F 87% 29.82 in 10.0 mi WSW 9.2 mph - N/A   Mostly Cloudy
9:35 AM 71.1 °F - 67.1 °F 87% 29.82 in 10.0 mi WSW 10.4 mph 17.3 mph N/A   Mostly Cloudy
9:55 AM 72.9 °F - 67.5 °F 83% 29.81 in 10.0 mi WSW 11.5 mph - N/A   Scattered Clouds
10:15 AM 72.5 °F - 67.3 °F 84% 29.81 in 10.0 mi West 16.1 mph 20.7 mph N/A   Mostly Cloudy
10:35 AM 72.0 °F - 67.6 °F 86% 29.80 in 10.0 mi WSW 12.7 mph 19.6 mph N/A   Overcast
10:55 AM 73.0 °F - 68.4 °F 85% 29.79 in 10.0 mi SW 16.1 mph 21.9 mph N/A   Mostly Cloudy
11:15 AM 72.9 °F - 68.4 °F 86% 29.79 in 10.0 mi WSW 16.1 mph 19.6 mph N/A   Mostly Cloudy
11:35 AM 73.4 °F - 68.7 °F 85% 29.79 in 10.0 mi SW 15.0 mph 20.7 mph N/A   Mostly Cloudy
11:55 AM 73.8 °F - 69.4 °F 86% 29.80 in 10.0 mi WSW 11.5 mph 19.6 mph N/A   Mostly Cloudy
12:15 PM 73.6 °F - 69.6 °F 87% 29.80 in 10.0 mi WSW 13.8 mph - N/A   Overcast
12:35 PM 73.0 °F - 70.2 °F 91% 29.80 in 10.0 mi SW 10.4 mph - N/A   Overcast
12:55 PM 73.9 °F - 70.7 °F 90% 29.79 in 10.0 mi SW 12.7 mph - N/A   Overcast
1:15 PM 75.6 °F - 71.4 °F 87% 29.79 in 7.0 mi SW 12.7 mph 17.3 mph N/A   Overcast
1:35 PM 76.8 °F - 72.3 °F 86% 29.79 in 10.0 mi WSW 11.5 mph - N/A   Overcast
1:55 PM 77.2 °F - 72.1 °F 84% 29.79 in 10.0 mi WSW 9.2 mph - N/A   Overcast
2:15 PM 78.3 °F - 72.1 °F 81% 29.79 in 10.0 mi SW 11.5 mph - N/A   Overcast
2:35 PM 80.6 °F 84.9 °F 72.3 °F 76% 29.78 in 10.0 mi West 9.2 mph - N/A   Mostly Cloudy
2:55 PM 79.3 °F - 72.0 °F 78% 29.78 in 10.0 mi SSW 9.2 mph - N/A Thunderstorm Scattered Clouds
3:15 PM 78.8 °F - 71.8 °F 79% 29.77 in 10.0 mi WSW 10.4 mph - N/A Thunderstorm Scattered Clouds
3:35 PM 78.3 °F - 72.0 °F 81% 29.78 in 10.0 mi WNW 8.1 mph - N/A Thunderstorm Scattered Clouds
3:55 PM 66.0 °F - 64.8 °F 96% 29.80 in 10.0 mi North 18.4 mph 25.3 mph N/A Rain , Thunderstorm Rain
4:15 PM 65.7 °F - 65.7 °F 100% 29.79 in 7.0 mi NNW 13.8 mph - 0.01 in Rain , Thunderstorm Thunderstorms and Rain
4:35 PM 64.2 °F - 64.2 °F 100% 29.80 in 2.5 mi SW 3.5 mph - 0.11 in Rain , Thunderstorm Rain
4:55 PM 64.6 °F - 64.6 °F 100% 29.81 in 7.0 mi WNW 9.2 mph - 0.13 in   Overcast
5:15 PM 65.3 °F - 65.3 °F 100% 29.78 in 7.0 mi SW 5.8 mph - 0.04 in Rain , Thunderstorm Light Thunderstorms and Rain
5:35 PM 65.3 °F - 65.3 °F 100% 29.79 in 10.0 mi WSW 10.4 mph - 0.05 in Rain Light Rain
5:55 PM 65.5 °F - 65.5 °F 100% 29.79 in 7.0 mi WSW 8.1 mph - 0.07 in Rain , Thunderstorm Light Thunderstorms and Rain
6:15 PM 66.4 °F - 66.4 °F 100% 29.76 in 10.0 mi WSW 3.5 mph - N/A   Light Drizzle
6:35 PM 66.7 °F - 66.7 °F 100% 29.76 in 10.0 mi SSW 8.1 mph - 0.01 in Rain Light Rain
6:55 PM 67.8 °F - 67.8 °F 100% 29.76 in 10.0 mi SSW 5.8 mph - 0.01 in   Clear
7:15 PM 67.3 °F - 67.3 °F 100% 29.76 in 10.0 mi SW 16.1 mph 19.6 mph N/A Rain Light Rain
7:35 PM 67.5 °F - 67.5 °F 100% 29.74 in 10.0 mi SSW 4.6 mph - N/A Rain Light Rain
7:55 PM 67.8 °F - 67.8 °F 100% 29.74 in 10.0 mi Calm Calm - N/A   Clear
8:15 PM 67.6 °F - 67.6 °F 100% 29.73 in 10.0 mi Calm Calm - N/A   Clear
8:35 PM 67.6 °F - 67.6 °F 100% 29.74 in 10.0 mi SSW 3.5 mph - N/A   Clear
8:55 PM 67.1 °F - 67.1 °F 100% 29.75 in 10.0 mi Calm Calm - N/A   Clear
9:15 PM 66.9 °F - 66.9 °F 100% 29.77 in 10.0 mi Calm Calm - N/A   Clear
9:35 PM 66.7 °F - 66.7 °F 100% 29.79 in 10.0 mi Calm Calm - N/A   Clear
9:55 PM 67.1 °F - 67.1 °F 100% 29.79 in 10.0 mi Calm Calm - N/A   Clear
10:15 PM 66.4 °F - 66.4 °F 100% 29.81 in 10.0 mi South 5.8 mph - N/A   Clear
10:35 PM 66.7 °F - 66.7 °F 100% 29.83 in 10.0 mi SSW 9.2 mph - N/A   Clear
10:55 PM 66.7 °F - 66.7 °F 100% 29.84 in 10.0 mi SSW 9.2 mph - N/A   Clear
11:15 PM 66.4 °F - 66.4 °F 100% 29.84 in 10.0 mi SW 4.6 mph - N/A   Clear
11:35 PM 65.8 °F - 65.8 °F 100% 29.84 in 10.0 mi Calm Calm - N/A   Clear
11:55 PM 65.7 °F - 65.7 °F 100% 29.84 in 10.0 mi Calm Calm - N/A   Clear